Simultaneous Nadir Overpasses (SNOs) Predictions

Prediction of SNOs between METOP-C and LANDSAT-8 Satellite Orbit:

Table of predicted SNOs for the next 14.0 days since TLE Epoch: 4/23/2022
Index Date (METOP-C) Time (METOP-C) Lat,Lon (METOP-C) SZA (METOP-C ) Date (LANDSAT-8) Time (LANDSAT-8) Lat,Lon (LANDSAT-8) SZA (LANDSAT-8 ) Distance(km) Time Diff (sec)
1 04/24/2022 07:55:17 81.14, 101.27 70.42 04/24/2022 07:55:54 81.15, 101.41 70.45 2.41 37
2 04/24/2022 08:45:55 -81.16, -90.70 109.51 04/24/2022 08:45:20 -81.16, -90.65 109.52 0.87 35
3 04/27/2022 03:29:38 81.14, 167.73 69.53 04/27/2022 03:30:08 81.14, 167.73 69.54 0.59 30
4 04/27/2022 04:20:15 -81.18, -23.85 110.35 04/27/2022 04:19:33 -81.18, -23.94 110.38 1.60 42
5 04/29/2022 23:03:58 81.14,-125.86 68.66 04/29/2022 23:04:20 81.15,-125.71 68.69 2.54 22
6 04/29/2022 23:54:36 -81.17, 42.20 111.26 04/29/2022 23:53:46 -81.17, 42.27 111.28 1.22 50
7 05/02/2022 18:38:17 81.17, -58.75 67.91 05/02/2022 18:38:32 81.17, -58.91 67.90 2.80 15
8 05/02/2022 19:28:57 -81.17, 108.58 112.10 05/02/2022 19:27:59 -81.17, 108.72 112.11 2.41 58
9 05/05/2022 14:12:38 81.16, 7.55 67.10 05/05/2022 14:12:45 81.16, 7.39 67.08 2.80 7



Historial Predications of SNOs between METOP-C and LANDSAT-8
